Voltar ao catálogo

INMARSAT GX5

AtivoComunicaçõesGEO
NORAD 44801·PAYLOAD·🇮🇲 IM

Lançado Nov 26, 2019 de Guiana Space Centre

Loading…

TLE

AtualizadoSource: Space-Track

Época: Sep 14, 2026, 18:59 UTC

1 44801U 19080B   26257.79113434  .00000067  00000-0  00000-0 0  9992
2 44801   0.0487 354.3354 0002102 184.6963 110.5443  1.00270943  7682

Acompanhe INMARSAT GX5 em tempo real com AllMySat

Download on the App Store